Location: Asheville, NC
(35.6000°N, 82.5500°W)
Time: 09:05:50
(UTC-05:00)

Vanguard 1 - Pass Details

Date: 14 December 2017
Orbit: 649 x 3834 km, 34.2° (Epoch: 21 January)

Event Time Altitude Azimuth Distance (km) Brightness Sun altitude
Rises 08:09:30 0° 227° (SW) 7,825 14.5 5.7°
Reaches altitude 10° 08:14:54 10° 223° (SW) 6,907 14.3 6.6°
Maximum altitude 08:37:25 57° 152° (SSE) 3,796 13.7 10.3°
Drops below altitude 10° 08:53:13 10° 80° (E) 5,083 14.4 12.7°
Sets 08:56:27 0° 76° (ENE) 5,742 14.5 13.2°
